WATER LEVELS

Guaranteed water level and forecast    Ústí nad Labem-Střekov

Guaranteed water level
Nad 275 cm
on 25.02.2020 more information
Forecast
305 cm
on 26.02.2020 07:00
Tendency
steady state
on 26.02.2020 metodika tendence
Forecast
313 cm
on 27.02.2020 07:00
(Source data ČHMÚ a Povodí Labe)

Ústí nad Labem

Date and time (UTC) H (cm) Q (m3/s)
25. 2. 2020 08:30 306 431
25. 2. 2020 08:00 306 431
25. 2. 2020 07:00 305 429
25. 2. 2020 06:00 305 429
25. 2. 2020 05:00 311 444
25. 2. 2020 04:00 312 447
25. 2. 2020 03:00 313 449
25. 2. 2020 02:00 311 444
25. 2. 2020 01:00 310 442
25. 2. 2020 00:00 304 426
24. 2. 2020 23:00 296 406
24. 2. 2020 22:00 288 387
24. 2. 2020 21:00 281 370
24. 2. 2020 20:00 277 360

H - water level, Q - discharge
more information

Mělník

Date and time (UTC) H (cm) Q (m3/s)
25. 2. 2020 08:40 297 -
25. 2. 2020 08:00 298 -
25. 2. 2020 07:00 299 340
25. 2. 2020 06:00 301 -
25. 2. 2020 05:00 301 -
25. 2. 2020 04:00 302 -
25. 2. 2020 03:00 303 -
25. 2. 2020 02:00 304 -
25. 2. 2020 01:00 306 -
25. 2. 2020 00:00 306 -
24. 2. 2020 23:00 303 -
24. 2. 2020 22:00 298 -
24. 2. 2020 21:00 298 -
24. 2. 2020 20:00 300 -

H - water level, Q - discharge
more information

Kostelec nad Labem

Date and time (UTC) H (cm) Q (m3/s)
25. 2. 2020 08:45 - 219
25. 2. 2020 08:00 453 223
25. 2. 2020 07:00 455 229
25. 2. 2020 06:00 457 229
25. 2. 2020 05:00 460 232
25. 2. 2020 04:00 462 236
25. 2. 2020 03:00 464 237
25. 2. 2020 02:00 468 242
25. 2. 2020 01:00 471 244
25. 2. 2020 00:00 473 246
24. 2. 2020 23:00 477 250
24. 2. 2020 22:00 481 248
24. 2. 2020 21:00 481 247
24. 2. 2020 20:00 479 247

H - water level, Q - discharge
more information

Přelouč

Date and time (UTC) H (cm) Q (m3/s)
25. 2. 2020 08:50 179 146
25. 2. 2020 08:00 181 149
25. 2. 2020 07:00 174 140
25. 2. 2020 06:00 174 140
25. 2. 2020 05:00 175 142
25. 2. 2020 04:00 174 140
25. 2. 2020 03:00 174 140
25. 2. 2020 02:00 174 140
25. 2. 2020 01:00 175 142
25. 2. 2020 00:00 174 140
24. 2. 2020 23:00 174 140
24. 2. 2020 22:00 175 142
24. 2. 2020 21:00 175 142
24. 2. 2020 20:00 174 140

H - water level, Q - discharge
more information

Praha-Chuchle

Date and time (UTC) H (cm) Q (m3/s)
25. 2. 2020 08:40 57 91
25. 2. 2020 08:00 58 95
25. 2. 2020 07:00 58 95
25. 2. 2020 06:00 58 95
25. 2. 2020 05:00 58 95
25. 2. 2020 04:00 57 91
25. 2. 2020 03:00 58 95
25. 2. 2020 02:00 58 95
25. 2. 2020 01:00 58 95
25. 2. 2020 00:00 58 95
24. 2. 2020 23:00 58 95
24. 2. 2020 22:00 58 95
24. 2. 2020 21:00 58 95
24. 2. 2020 20:00 58 95

H - water level, Q - discharge
more information

České Budějovice

Date and time (UTC) H (cm) Q (m3/s)
25. 2. 2020 08:40 105 17
25. 2. 2020 08:00 105 18
25. 2. 2020 07:00 104 18
25. 2. 2020 06:00 104 18
25. 2. 2020 05:00 105 18
25. 2. 2020 04:00 106 19
25. 2. 2020 03:00 105 19
25. 2. 2020 02:00 105 19
25. 2. 2020 01:00 105 19
25. 2. 2020 00:00 105 19
24. 2. 2020 23:00 105 19
24. 2. 2020 22:00 105 19
24. 2. 2020 21:00 105 19
24. 2. 2020 20:00 105 18

H - water level, Q - discharge
more information
Source data
Labe Basin Vltava Basin ČHMÚ